Ravalli County (6S5)
Hamilton, MT
Field Elevation: 3642
Lat: 45°15.05N  Long: 114°07.31W
CTAF/Unicom Freq: 122.8000
   
     For Weather-by-Phone, call 406-375-9149
Weather Advisories
9/20/2014 13:57 Z
Altimeter 30.28" Hg
Wind 160° @ 0 KT
Gusts --
Visibility 10 SM
Temperature 7° C (45° F)
Dewpoint 4° C (39° F)
Relative Humidity 84%
Density Altitude --
Condensation Altitude 5,000 feet
  Wind and Runways
Indicated Runway = 16
History
 
 
More Info
All DigiWx sites map
NOAA Forecast
 
Airport IQ 5010
(S59) Libby
(79S) Fort Benton
 
about DigiWx
 
FAA Disclaimer: The data displayed is for advisory purposes only and is not to be used for flight planning or operations. For official data, please call 406-375-9149 to hear the current automated AWOS voice message.
  METAR 6S5 201357Z AUTO 16000KT 10SM 07/04 A3028